This is the latest recevied weather packets stored in our database for station/object KD7CIH. If no packets are shown the sender has not sent any weather packets the latest 1 day(s).
| Time | Temp. | Humidity | Pressure | Rain* | Wind** | Luminosity | Snow |
|---|---|---|---|---|---|---|---|
| 1778121069 | 10° C | 42% | 1012.3 hPa | 0 mm | - | - | - |
| 1778120767 | 10° C | 41% | 1012.2 hPa | 0 mm | - | - | - |
| 1778120468 | 10° C | 41% | 1012 hPa | 0 mm | - | - | - |
| 1778120166 | 10° C | 41% | 1012.3 hPa | 0 mm | - | - | - |
| 1778119869 | 10.56° C | 41% | 1012.3 hPa | 0 mm | - | - | - |
| 1778119566 | 10.56° C | 41% | 1012.2 hPa | 0 mm | - | - | - |
| 1778118967 | 10.56° C | 41% | 1012 hPa | 0 mm | - | - | - |
| 1778118794 | 10.56° C | 41% | 1012 hPa | 0 mm | - | - | - |
| 1778118066 | 11.11° C | 38% | 1012 hPa | 0 mm | - | - | - |
| 1778117893 | 11.67° C | 37% | 1012 hPa | 0 mm | - | - | - |
| 1778117466 | 11.67° C | 37% | 1012 hPa | 0 mm | - | - | - |
| 1778117166 | 11.67° C | 38% | 1012 hPa | 0 mm | - | - | - |
| 1778116992 | 11.67° C | 37% | 1012 hPa | 0 mm | - | - | - |
| 1778116693 | 11.67° C | 38% | 1012 hPa | 0 mm | - | - | - |
| 1778116265 | 11.67° C | 37% | 1012.2 hPa | 0 mm | - | - | - |
| 1778115965 | 11.67° C | 38% | 1011.9 hPa | 0 mm | - | - | - |
| 1778115667 | 11.11° C | 39% | 1012.2 hPa | 0 mm | - | - | - |
| 1778115493 | 11.11° C | 39% | 1012.2 hPa | 0 mm | - | - | - |
| 1778115066 | 11.11° C | 40% | 1012.3 hPa | 0 mm | - | - | - |
| 1778114466 | 10.56° C | 40% | 1012.2 hPa | 0 mm | - | - | - |
| 1778113867 | 10.56° C | 41% | 1012.4 hPa | 0 mm | - | - | - |
| 1778113266 | 10.56° C | 40% | 1012.5 hPa | 0 mm | - | - | - |
| 1778112492 | 10.56° C | 40% | 1012.8 hPa | 0 mm | - | - | - |
| 1778111165 | 10° C | 44% | 1013 hPa | 0 mm | - | - | - |
| 1778110267 | 8.89° C | 43% | 1013.1 hPa | 0 mm | - | - | - |
* Rain latest hour (hover to see other rain measurements)
** Current wind speed in m/s (hover to see current wind gust speed)